Location: Gadern
(49.5873°N, 8.8138°E)
Time: 00:12:41
(UTC+00:00)

GP-B - Pass Details

Date: 19 May 2025
Orbit: 619 x 623 km, 89.8° (Epoch: 15 June)

Event Time Altitude Azimuth Distance (km) Brightness Sun altitude
Rises 23:09:01 0° 2° (N) 2,916 8.1 -20.4°
Reaches altitude 10° 23:11:15 10° 5° (N) 2,003 6.9 -20.4°
Maximum altitude 23:15:39 75° 90° (E) 650 3.0 -20.4°
Enters shadow 23:16:37 52° 159° (SSE) 773 3.1 -20.4°
